Valparaiso, FL

12:44 AM CST on November 23, 2017 (GMT -0600)
Eglin Air Force Base

Weather History for KVPS - April, 2014

Change the Weather History Date:

Tuesday, April 8, 2014

  Actual Average Record
Temperature  
Mean Temperature 58 °F -  
Max Temperature 69 °F 76 °F 88 °F (1986)
Min Temperature 48 °F 50 °F 31 °F (1971)
Degree Days  
Heating Degree Days 7    
Growing Degree Days 8 (Base 50)    
Moisture  
Dew Point 48 °F    
Average Humidity 71    
Maximum Humidity 94    
Minimum Humidity 43    
Precipitation  
Precipitation 0.00 in - - ()
Sea Level Pressure  
Sea Level Pressure 29.86 in    
Wind  
Wind Speed 11 mph (NW)    
Max Wind Speed 17 mph    
Max Gust Speed 25 mph    
Visibility 10 miles    
Events Rain    
Averages and records for this station are not official NWS values.
T = Trace of Precipitation, MM = Missing Value Source: NWS Daily Summary

Daily Weather History Graph

Daily Weather History Graph

Search for Another Location

Airport or City:

Trip Planner

Search our weather history database for the weather conditions in past years. The results will help you decide how hot, cold, wet, or windy it might be!

Date:

Astronomy

Apr. 08, 2014 Rise Set
Actual Time 6:26 AM CDT 7:09 PM CDT
Civil Twilight 6:02 AM CDT 7:33 PM CDT
Nautical Twilight 5:33 AM CDT 8:02 PM CDT
Astronomical Twilight 5:04 AM CDT 8:31 PM CDT
Moon 1:25 PM CDT (4/8) 2:15 AM CDT (4/8)
Length of Visible Light 13h 31m
Length of Day
12h 42m
Waxing Gibbous, 63% of the Moon is Illuminated
Apr 8
Waxing Gibbous
Apr 15
Full
Apr 22
Last Quarter
Apr 29
New
May 6
First Quarter

Hourly Weather History & Observations

Time (CDT) Temp. Dew Point Humidity Pressure Visibility Wind Dir Wind Speed Gust Speed Precip Events Conditions
12:55 AM 60.3 °F 53.4 °F 78% 29.83 in 10.0 mi North 17.3 mph 24.2 mph N/A   Mostly Cloudy
1:56 AM 57.9 °F 50.7 °F 77% 29.83 in 10.0 mi North 12.7 mph 19.6 mph N/A   Mostly Cloudy
2:55 AM 56.1 °F 49.5 °F 78% 29.84 in 10.0 mi North 10.4 mph - N/A   Scattered Clouds
3:55 AM 54.3 °F 48.4 °F 80% 29.84 in 10.0 mi NNW 8.1 mph - N/A   Scattered Clouds
4:58 AM 51.8 °F 48.0 °F 87% 29.83 in 10.0 mi NNE 4.6 mph - N/A   Partly Cloudy
5:56 AM 49.5 °F 47.5 °F 93% 29.85 in 10.0 mi NW 6.9 mph - N/A   Scattered Clouds
6:55 AM 48.7 °F 47.1 °F 94% 29.86 in 10.0 mi NW 5.8 mph - N/A   Mostly Cloudy
7:55 AM 53.1 °F 48.4 °F 84% 29.88 in 10.0 mi NW 8.1 mph - N/A   Scattered Clouds
8:55 AM 57.2 °F 46.2 °F 67% 29.89 in 10.0 mi North 10.4 mph - N/A   Mostly Cloudy
9:55 AM 59.7 °F 45.3 °F 59% 29.90 in 10.0 mi North 10.4 mph - N/A   Mostly Cloudy
10:55 AM 63.5 °F 45.7 °F 52% 29.89 in 10.0 mi North 5.8 mph - N/A   Mostly Cloudy
11:55 AM 65.1 °F 45.0 °F 48% 29.89 in 10.0 mi NW 11.5 mph - N/A   Mostly Cloudy
12:55 PM 67.8 °F 44.2 °F 43% 29.85 in 10.0 mi North 12.7 mph - N/A   Mostly Cloudy
1:55 PM 68.7 °F 45.1 °F 43% 29.84 in 10.0 mi North 5.8 mph - N/A   Mostly Cloudy
2:55 PM 67.1 °F 45.3 °F 45% 29.83 in 10.0 mi NW 8.1 mph - N/A   Mostly Cloudy
3:55 PM 67.1 °F 45.3 °F 45% 29.82 in 10.0 mi WNW 15.0 mph - N/A   Mostly Cloudy
4:55 PM 65.1 °F 50.5 °F 59% 29.82 in 10.0 mi West 12.7 mph 18.4 mph N/A   Mostly Cloudy
5:41 PM 64.4 °F 50.0 °F 59% 29.81 in 10.0 mi West 13.8 mph 25.3 mph N/A   Light Drizzle
5:55 PM 62.1 °F 49.8 °F 64% 29.83 in 10.0 mi West 12.7 mph - 0.00 in Rain Light Rain
6:44 PM 59.0 °F 51.8 °F 77% 29.83 in 10.0 mi NW 10.4 mph - N/A   Mostly Cloudy
6:57 PM 59.2 °F 50.4 °F 73% 29.85 in 10.0 mi NW 9.2 mph - 0.00 in   Mostly Cloudy
7:55 PM 57.0 °F 50.0 °F 77% 29.88 in 10.0 mi NW 8.1 mph - N/A   Mostly Cloudy
8:56 PM 55.9 °F 50.5 °F 82% 29.91 in 10.0 mi NW 9.2 mph - N/A   Mostly Cloudy
9:55 PM 54.3 °F 50.7 °F 88% 29.92 in 10.0 mi WNW 8.1 mph - N/A   Scattered Clouds
10:55 PM 53.4 °F 50.9 °F 91% 29.93 in 10.0 mi NW 8.1 mph - N/A   Scattered Clouds
11:55 PM 53.4 °F 50.9 °F 91% 29.95 in 10.0 mi NW 9.2 mph - N/A   Mostly Cloudy